Surface/Precipitation History
01/24/2015 21:23  to  1/25/2015 21:23
Change End Date:
Date/Time
(MST)
Sf
Temp Chem Water Layer Surface Precipitation
Sf Sub Frz Factor Pct Depth IcePct Cond Salin Type Intens Accum Rate
01/25/2015 20:55 Ice Watch 27.7F - - 95 - - - 2 mhos 356 None None - -
01/25/2015 20:47 Ice Watch 27.7F - - 95 - - - 2 mhos 344 None None - -
01/25/2015 20:37 Ice Watch 27.9F - - 95 - - - 2 mhos 336 None None - -
01/25/2015 20:27 Ice Watch 28.0F - - 95 - - - 2 mhos 324 None None - -
01/25/2015 20:25 Ice Watch 28.0F - - 95 - - - 2 mhos 325 None None - -
01/25/2015 20:17 Ice Watch 28.2F - - 95 - - - 2 mhos 321 None None - -
01/25/2015 20:10 Ice Watch 28.2F - - 95 - - - 2 mhos 317 None None - -
01/25/2015 20:07 Ice Watch 28.2F - - 95 - - - 2 mhos 314 None None - -
01/25/2015 19:57 Ice Watch 28.6F - - 95 - - - 2 mhos 303 None None - -
01/25/2015 19:55 Ice Watch 28.6F - - 95 - - - 2 mhos 300 None None - -
01/25/2015 19:47 Ice Watch 28.6F - - 95 - - - 2 mhos 294 None None - -
01/25/2015 19:40 Ice Watch 28.6F - - 95 - - - 2 mhos 288 None None - -
01/25/2015 19:37 Ice Watch 28.8F - - 90 - - - 2 mhos 285 None None - -
01/25/2015 19:27 Ice Watch 28.8F - - 95 - - - 2 mhos 273 None None - -
01/25/2015 19:25 Ice Watch 28.8F - - 95 - - - 2 mhos 275 None None - -
Date/Time
(MST)
Sf
Temp Chem Water Layer Surface Precipitation
Sf Sub Frz Factor Pct Depth IcePct Cond Salin Type Intens Accum Rate
01/25/2015 19:17 Ice Watch 28.8F - - 95 - - - 2 mhos 265 None None - -
01/25/2015 19:10 Ice Watch 28.8F - - 95 - - - 2 mhos 256 None None - -
01/25/2015 19:06 Ice Watch 28.8F - - 95 - - - 2 mhos 254 None None - -
01/25/2015 18:56 Ice Watch 28.9F - - 90 - - - 2 mhos 238 None None - -
01/25/2015 18:55 Ice Watch 28.9F - - 95 - - - 2 mhos 236 None None - -
01/25/2015 18:46 Ice Watch 28.9F - - 95 - - - 2 mhos 222 None None - -
01/25/2015 18:36 Ice Watch 28.9F - - 95 - - - 2 mhos 197 None None - -
01/25/2015 18:26 Ice Watch 28.9F - - 95 - - - 1 mhos 168 None None - -
01/25/2015 18:25 Ice Watch 28.9F - - 95 - - - 1 mhos 166 None None - -
01/25/2015 18:16 Ice Watch 28.9F - - 95 - - - 1 mhos 138 None None - -
01/25/2015 18:10 Ice Watch 29.1F - - 95 - - - 1 mhos 118 None None - -
01/25/2015 18:06 Ice Watch 29.1F - - 95 - - - 1 mhos 106 None None - -
01/25/2015 17:56 Ice Watch 29.5F - - 95 - - - 1 mhos 78 None None - -
01/25/2015 17:55 Ice Watch 29.5F - - 95 - - - 1 mhos 75 None None - -
01/25/2015 17:46 Ice Watch 29.8F - - 95 - - - 0 mhos 50 None None - -
Date/Time
(MST)
Sf
Temp Chem Water Layer Surface Precipitation
Sf Sub Frz Factor Pct Depth IcePct Cond Salin Type Intens Accum Rate
01/25/2015 17:40 Ice Watch 30.0F - - 95 - - - 0 mhos 33 None None - -
01/25/2015 17:36 Ice Watch 30.2F - - 95 - - - 0 mhos 27 None None - -
01/25/2015 17:26 Ice Watch 30.7F - - 90 - - - 0 mhos 11 None None - -
01/25/2015 17:25 Ice Watch 30.7F - - 85 - - - 0 mhos 10 None None - -
01/25/2015 17:16 Ice Watch 31.1F - - 60 - - - 0 mhos 4 None None - -
01/25/2015 17:10 Ice Watch 31.3F - - 50 - - - 0 mhos 3 None None - -
01/25/2015 17:06 Ice Watch 31.6F - - 40 - - - 0 mhos 2 None None - -
01/25/2015 16:56 Trace Moisture 32.4F - - 15 - - - 0 mhos 1 None None - -
01/25/2015 16:55 Trace Moisture 32.4F - - 15 - - - 0 mhos 1 None None - -
01/25/2015 16:46 Trace Moisture 32.9F - - 5 - - - 0 mhos 1 None None - -
01/25/2015 16:40 Trace Moisture 33.4F - - 5 - - - 0 mhos 1 None None - -
01/25/2015 16:36 Trace Moisture 33.4F - - 5 - - - 0 mhos 1 None None - -
01/25/2015 16:26 Trace Moisture 34.2F - - 5 - - - 0 mhos 1 None None - -
01/25/2015 16:25 Trace Moisture 34.3F - - 5 - - - 0 mhos 1 None None - -
01/25/2015 16:16 Trace Moisture 34.7F - - 5 - - - 0 mhos 0 None None - -
Date/Time
(MST)
Sf
Temp Chem Water Layer Surface Precipitation
Sf Sub Frz Factor Pct Depth IcePct Cond Salin Type Intens Accum Rate
01/25/2015 16:10 Trace Moisture 35.1F - - 5 - - - 0 mhos 0 None None - -
01/25/2015 16:06 Trace Moisture 35.2F - - 5 - - - 0 mhos 0 None None - -
01/25/2015 15:56 Trace Moisture 35.8F - - 5 - - - 0 mhos 0 None None - -
01/25/2015 15:55 Trace Moisture 35.8F - - 5 - - - 0 mhos 0 None None - -
01/25/2015 15:45 Dry 36.9F - - - - - - 0 mhos 0 None None - -
01/25/2015 15:40 Dry 37.4F - - - - - - 0 mhos 0 None None - -
01/25/2015 15:35 Dry 38.1F - - - - - - 0 mhos 0 None None - -
01/25/2015 15:25 Dry 39.4F - - - - - - 0 mhos 0 None None - -
01/25/2015 15:25 Dry 39.4F - - - - - - 0 mhos 0 None None - -
01/25/2015 15:15 Dry 40.1F - - - - - - 0 mhos 0 None None - -
01/25/2015 15:10 Dry 40.8F - - - - - - 0 mhos 0 None None - -
01/25/2015 15:05 Dry 43.2F - - - - - - 0 mhos 0 None None - -
01/25/2015 14:55 Dry 46.0F - - - - - - 0 mhos 0 None None - -
01/25/2015 14:55 Dry 46.0F - - - - - - 0 mhos 0 None None - -
01/25/2015 14:45 Dry 45.9F - - - - - - 0 mhos 0 None None - -
Date/Time
(MST)
Sf
Temp Chem Water Layer Surface Precipitation
Sf Sub Frz Factor Pct Depth IcePct Cond Salin Type Intens Accum Rate
01/25/2015 14:40 Dry 47.1F - - - - - - 0 mhos 0 None None - -
01/25/2015 14:35 Dry 46.4F - - - - - - 0 mhos 0 None None - -
01/25/2015 14:25 Dry 45.1F - - - - - - 0 mhos 0 None None - -
01/25/2015 14:25 Dry 45.1F - - - - - - 0 mhos 0 None None - -
01/25/2015 14:15 Dry 45.9F - - - - - - 0 mhos 1 None None - -
01/25/2015 14:10 Dry 44.8F - - - - - - 0 mhos 2 None None - -
01/25/2015 14:05 Dry 43.9F - - - - - - 0 mhos 3 None None - -
01/25/2015 13:55 Dry 42.6F - - - - - - 0 mhos 10 None None - -
01/25/2015 13:55 Dry 42.6F - - - - - - 0 mhos 10 None None - -
01/25/2015 13:45 Dry 41.9F - - - - - - 0 mhos 21 None None - -
01/25/2015 13:41 Dry 43.3F - - - - - - 0 mhos 28 None None - -
01/25/2015 13:35 Dry 42.8F - - - - - - 0 mhos 39 None None - -
01/25/2015 13:25 Dry 38.3F - - - - - - 1 mhos 55 None None - -
01/25/2015 13:25 Dry 38.3F - - - - - - 1 mhos 55 None None - -
01/25/2015 13:15 Dry 37.9F - - - - - - 1 mhos 68 None None - -
Date/Time
(MST)
Sf
Temp Chem Water Layer Surface Precipitation
Sf Sub Frz Factor Pct Depth IcePct Cond Salin Type Intens Accum Rate
01/25/2015 13:10 Dry 40.6F - - - - - - 1 mhos 77 None None - -
01/25/2015 13:05 Dry 41.9F - - - - - - 1 mhos 91 None None - -
01/25/2015 12:55 Dry 42.8F - - - - - - 1 mhos 121 None None - -
01/25/2015 12:55 Dry 42.8F - - - - - - 1 mhos 121 None None - -
01/25/2015 12:45 Dry 39.9F - - - - - - 2 mhos 150 None None - -
01/25/2015 12:40 Dry 38.3F - - - - - - 2 mhos 163 None None - -
01/25/2015 12:35 Dry 39.2F - - - - - - 2 mhos 172 None None - -
01/25/2015 12:25 Trace Moisture 35.8F - - 95 - - - 2 mhos 196 None None - -
01/25/2015 12:25 Trace Moisture 35.8F - - 95 - - - 2 mhos 196 None None - -
01/25/2015 12:14 Trace Moisture 36.9F - - 55 - - - 2 mhos 224 None None - -
01/25/2015 12:10 Trace Moisture 36.1F - - 90 - - - 3 mhos 242 None None - -
01/25/2015 12:04 Trace Moisture 35.8F - - 95 - - - 3 mhos 254 None None - -
01/25/2015 11:55 Trace Moisture 35.1F - - 95 - - - 3 mhos 266 None None - -
01/25/2015 11:54 Trace Moisture 35.1F - - 95 - - - 3 mhos 270 None None - -
01/25/2015 11:44 Trace Moisture 36.1F - - 95 - - - 3 mhos 291 None None - -
Date/Time
(MST)
Sf
Temp Chem Water Layer Surface Precipitation
Sf Sub Frz Factor Pct Depth IcePct Cond Salin Type Intens Accum Rate
01/25/2015 11:40 Trace Moisture 35.1F - - 95 - - - 3 mhos 304 None None - -
01/25/2015 11:34 Trace Moisture 34.2F - - 95 - - - 3 mhos 316 None None - -
01/25/2015 11:25 Trace Moisture 32.9F - - 95 - - - 3 mhos 345 None None - -
01/25/2015 11:24 Trace Moisture 32.9F - - 95 - - - 3 mhos 347 None None - -
01/25/2015 11:14 Ice Watch 32.0F - - 95 - - - 4 mhos 376 None None - -
01/25/2015 11:10 Ice Watch 31.6F - - 95 - - - 4 mhos 399 None None - -
01/25/2015 11:04 Ice Watch 31.1F - - 95 - - - 4 mhos 430 None None - -
01/25/2015 10:55 Ice Watch 30.4F - - 95 - - - 4 mhos 489 None None - -
01/25/2015 10:54 Ice Watch 30.2F - - 95 - - - 4 mhos 500 None None - -
01/25/2015 10:44 Ice Watch 29.5F - - 95 - - - 5 mhos 570 None None - -
01/25/2015 10:40 Ice Watch 28.9F - - 95 - - - 5 mhos 606 None None - -
01/25/2015 10:34 Ice Watch 28.8F - - 95 - - - 5 mhos 646 None None - -
01/25/2015 10:25 Ice Watch 27.9F - - 95 - - - 5 mhos 723 None None - -
01/25/2015 10:24 Ice Watch 27.9F - - 95 - - - 5 mhos 724 None None - -
01/25/2015 10:14 Ice Watch 27.3F - - 95 - - - 5 mhos 772 None None - -
Date/Time
(MST)
Sf
Temp Chem Water Layer Surface Precipitation
Sf Sub Frz Factor Pct Depth IcePct Cond Salin Type Intens Accum Rate
01/25/2015 10:10 Ice Watch 27.0F - - 95 - - - 5 mhos 795 None None - -
01/25/2015 10:04 Ice Watch 26.4F - - 95 - - - 5 mhos 818 None None - -
01/25/2015 09:55 Ice Watch 25.7F - - 95 - - - 5 mhos 871 None None - -
01/25/2015 09:54 Ice Watch 25.9F - - 95 - - - 5 mhos 853 None None - -
01/25/2015 09:44 Ice Watch 25.3F - - 95 - - - 5 mhos 878 None None - -
01/25/2015 09:40 Ice Watch 25.3F - - 95 - - - 5 mhos 867 None None - -
01/25/2015 09:34 Ice Watch 25.3F - - 95 - - - 5 mhos 849 None None - -
01/25/2015 09:25 Ice Watch 25.0F - - 95 - - - 5 mhos 870 None None - -
01/25/2015 09:24 Ice Watch 25.0F - - 95 - - - 5 mhos 868 None None - -
01/25/2015 09:14 Ice Watch 24.3F - - 95 - - - 5 mhos 881 None None - -
01/25/2015 09:10 Ice Watch 24.3F - - 95 - - - 5 mhos 870 None None - -
01/25/2015 09:04 Ice Watch 24.3F - - 95 - - - 5 mhos 859 None None - -
01/25/2015 08:55 Ice Watch 24.1F - - 95 - - - 5 mhos 863 None None - -
01/25/2015 08:54 Ice Watch 24.1F - - 95 - - - 5 mhos 860 None None - -
01/25/2015 08:43 Ice Watch 23.7F - - 95 - - - 4 mhos 874 None None - -
Date/Time
(MST)
Sf
Temp Chem Water Layer Surface Precipitation
Sf Sub Frz Factor Pct Depth IcePct Cond Salin Type Intens Accum Rate
01/25/2015 08:40 Ice Watch 23.7F - - 95 - - - 4 mhos 865 None None - -
01/25/2015 08:33 Ice Watch 23.4F - - 95 - - - 4 mhos 881 None None - -
01/25/2015 08:25 Ice Watch 23.2F - - 95 - - - 4 mhos 874 None None - -
01/25/2015 08:23 Ice Watch 23.2F - - 95 - - - 4 mhos 868 None None - -
01/25/2015 08:13 Ice Watch 23.0F - - 95 - - - 4 mhos 865 None None - -
01/25/2015 08:10 Ice Watch 22.8F - - 95 - - - 4 mhos 872 None None - -
01/25/2015 08:03 Ice Watch 22.8F - - 95 - - - 4 mhos 855 None None - -
01/25/2015 07:55 Ice Watch 23.0F - - 95 - - - 4 mhos 835 None None - -
01/25/2015 07:53 Ice Watch 22.8F - - 95 - - - 4 mhos 840 None None - -
01/25/2015 07:43 Ice Watch 22.6F - - 95 - - - 4 mhos 831 None None - -
01/25/2015 07:33 Ice Watch 23.0F - - 95 - - - 4 mhos 790 None None - -
01/25/2015 07:25 Ice Watch 22.8F - - 95 - - - 4 mhos 782 None None - -
01/25/2015 07:23 Ice Watch 23.0F - - 95 - - - 4 mhos 772 None None - -
01/25/2015 07:13 Ice Watch 23.0F - - 95 - - - 4 mhos 754 None None - -
01/25/2015 07:10 Ice Watch 23.0F - - 95 - - - 4 mhos 749 None None - -
Date/Time
(MST)
Sf
Temp Chem Water Layer Surface Precipitation
Sf Sub Frz Factor Pct Depth IcePct Cond Salin Type Intens Accum Rate
01/25/2015 07:03 Ice Watch 23.0F - - 95 - - - 4 mhos 744 None None - -
01/25/2015 06:55 Ice Watch 23.0F - - 95 - - - 4 mhos 742 None None - -
01/25/2015 06:53 Ice Watch 23.0F - - 95 - - - 4 mhos 740 None None - -
01/25/2015 06:43 Ice Watch 23.2F - - 95 - - - 4 mhos 724 None None - -
01/25/2015 06:40 Ice Watch 23.2F - - 95 - - - 3 mhos 720 None None - -
01/25/2015 06:33 Ice Watch 23.0F - - 95 - - - 3 mhos 720 None None - -
01/25/2015 06:25 Ice Watch 23.0F - - 95 - - - 3 mhos 711 None None - -
01/25/2015 06:23 Ice Watch 23.0F - - 95 - - - 3 mhos 707 None None - -
01/25/2015 06:13 Ice Watch 23.0F - - 95 - - - 3 mhos 692 None None - -
01/25/2015 06:10 Ice Watch 23.0F - - 95 - - - 3 mhos 688 None None - -
01/25/2015 06:03 Ice Watch 23.0F - - 95 - - - 3 mhos 679 None None - -
01/25/2015 05:55 Ice Watch 22.8F - - 95 - - - 3 mhos 677 None None - -
01/25/2015 05:53 Ice Watch 23.0F - - 95 - - - 3 mhos 667 None None - -
01/25/2015 05:43 Ice Watch 22.8F - - 95 - - - 3 mhos 657 None None - -
01/25/2015 05:33 Ice Watch 22.8F - - 95 - - - 3 mhos 640 None None - -
Date/Time
(MST)
Sf
Temp Chem Water Layer Surface Precipitation
Sf Sub Frz Factor Pct Depth IcePct Cond Salin Type Intens Accum Rate
01/25/2015 05:25 Ice Watch 22.8F - - 95 - - - 3 mhos 632 None None - -
01/25/2015 05:23 Ice Watch 22.6F - - 95 - - - 3 mhos 629 None None - -
01/25/2015 05:12 Ice Watch 22.6F - - 95 - - - 3 mhos 623 None None - -
01/25/2015 05:02 Ice Watch 22.6F - - 95 - - - 3 mhos 616 None None - -
01/25/2015 04:55 Ice Watch 22.6F - - 95 - - - 3 mhos 624 None None - -
01/25/2015 04:52 Ice Watch 22.6F - - 95 - - - 3 mhos 615 None None - -
01/25/2015 04:42 Ice Watch 22.5F - - 95 - - - 3 mhos 621 None None - -
01/25/2015 04:32 Ice Watch 22.5F - - 95 - - - 3 mhos 606 None None - -
01/25/2015 04:25 Ice Watch 22.3F - - 95 - - - 3 mhos 606 None None - -
01/25/2015 04:22 Ice Watch 22.3F - - 95 - - - 3 mhos 606 None None - -
01/25/2015 04:12 Ice Watch 22.5F - - 95 - - - 3 mhos 584 None None - -
01/25/2015 04:02 Ice Watch 22.6F - - 95 - - - 3 mhos 563 None None - -
01/25/2015 03:55 Ice Watch 22.8F - - 95 - - - 3 mhos 552 None None - -
01/25/2015 03:52 Ice Watch 23.0F - - 95 - - - 3 mhos 545 None None - -
01/25/2015 03:42 Ice Watch 23.4F - - 95 - - - 3 mhos 519 None None - -
Date/Time
(MST)
Sf
Temp Chem Water Layer Surface Precipitation
Sf Sub Frz Factor Pct Depth IcePct Cond Salin Type Intens Accum Rate
01/25/2015 03:32 Ice Watch 23.9F - - 95 - - - 3 mhos 505 None None - -
01/25/2015 03:26 Ice Watch 23.7F - - 95 - - - 3 mhos 510 None None - -
01/25/2015 03:22 Ice Watch 23.7F - - 95 - - - 3 mhos 510 None None - -
01/25/2015 03:12 Ice Watch 23.9F - - 95 - - - 3 mhos 505 None None - -
01/25/2015 03:02 Ice Watch 23.7F - - 95 - - - 3 mhos 511 None None - -
01/25/2015 02:55 Ice Watch 23.5F - - 95 - - - 3 mhos 516 None None - -
01/25/2015 02:52 Ice Watch 23.9F - - 95 - - - 3 mhos 505 None None - -
01/25/2015 02:42 Ice Watch 23.5F - - 95 - - - 3 mhos 510 None None - -
01/25/2015 02:40 Ice Watch 23.9F - - 95 - - - 3 mhos 499 None None - -
01/25/2015 02:32 Ice Watch 23.7F - - 95 - - - 3 mhos 504 None None - -
01/25/2015 02:26 Ice Watch 23.9F - - 95 - - - 3 mhos 494 None None - -
01/25/2015 02:22 Ice Watch 23.7F - - 95 - - - 3 mhos 498 None None - -
01/25/2015 02:12 Ice Watch 23.9F - - 95 - - - 3 mhos 494 None None - -
01/25/2015 02:02 Ice Watch 23.9F - - 95 - - - 3 mhos 494 None None - -
01/25/2015 01:55 Ice Watch 23.9F - - 95 - - - 3 mhos 488 None None - -
Date/Time
(MST)
Sf
Temp Chem Water Layer Surface Precipitation
Sf Sub Frz Factor Pct Depth IcePct Cond Salin Type Intens Accum Rate
01/25/2015 01:52 Ice Watch 23.9F - - 95 - - - 3 mhos 488 None None - -
01/25/2015 01:41 Ice Watch 23.7F - - 95 - - - 2 mhos 487 None None - -
01/25/2015 01:40 Ice Watch 23.7F - - 95 - - - 2 mhos 487 None None - -
01/25/2015 01:31 Ice Watch 23.5F - - 95 - - - 2 mhos 488 None None - -
01/25/2015 01:25 Ice Watch 23.7F - - 95 - - - 2 mhos 484 None None - -
01/25/2015 01:21 Ice Watch 23.7F - - 95 - - - 2 mhos 484 None None - -
01/25/2015 01:11 Ice Watch 23.7F - - 95 - - - 2 mhos 479 None None - -
01/25/2015 01:10 Ice Watch 23.5F - - 95 - - - 2 mhos 488 None None - -
01/25/2015 01:01 Ice Watch 23.5F - - 95 - - - 2 mhos 485 None None - -
01/25/2015 00:55 Ice Watch 23.5F - - 95 - - - 2 mhos 480 None None - -
01/25/2015 00:51 Ice Watch 23.5F - - 95 - - - 2 mhos 489 None None - -
01/25/2015 00:41 Ice Watch 23.5F - - 95 - - - 2 mhos 480 None None - -
01/25/2015 00:31 Ice Watch 23.2F - - 95 - - - 2 mhos 492 None None - -
01/25/2015 00:25 Ice Watch 23.5F - - 95 - - - 2 mhos 484 None None - -
01/25/2015 00:21 Ice Watch 23.5F - - 95 - - - 2 mhos 484 None None - -
Date/Time
(MST)
Sf
Temp Chem Water Layer Surface Precipitation
Sf Sub Frz Factor Pct Depth IcePct Cond Salin Type Intens Accum Rate
01/25/2015 00:11 Ice Watch 23.5F - - 95 - - - 2 mhos 484 None None - -
01/25/2015 00:10 Ice Watch 23.5F - - 95 - - - 2 mhos 479 None None - -
01/25/2015 00:01 Ice Watch 23.4F - - 95 - - - 2 mhos 481 None None - -
01/24/2015 23:51 Ice Watch 23.4F - - 95 - - - 2 mhos 481 None None - -
01/24/2015 23:41 Ice Watch 23.5F - - 95 - - - 2 mhos 469 None None - -
01/24/2015 23:40 Ice Watch 23.5F - - 95 - - - 2 mhos 474 None None - -
01/24/2015 23:31 Ice Watch 23.4F - - 95 - - - 2 mhos 475 None None - -
01/24/2015 23:25 Ice Watch 23.2F - - 95 - - - 2 mhos 477 None None - -
01/24/2015 23:21 Ice Watch 23.4F - - 95 - - - 2 mhos 471 None None - -
01/24/2015 23:11 Ice Watch 23.2F - - 95 - - - 2 mhos 472 None None - -
01/24/2015 23:10 Ice Watch 23.2F - - 95 - - - 2 mhos 472 None None - -
01/24/2015 23:01 Ice Watch 23.2F - - 95 - - - 2 mhos 476 None None - -
01/24/2015 22:55 Ice Watch 23.4F - - 95 - - - 2 mhos 469 None None - -
01/24/2015 22:51 Ice Watch 23.4F - - 95 - - - 2 mhos 465 None None - -
01/24/2015 22:41 Ice Watch 23.4F - - 95 - - - 2 mhos 461 None None - -
Date/Time
(MST)
Sf
Temp Chem Water Layer Surface Precipitation
Sf Sub Frz Factor Pct Depth IcePct Cond Salin Type Intens Accum Rate
01/24/2015 22:40 Ice Watch 23.5F - - 95 - - - 2 mhos 455 None None - -
01/24/2015 22:31 Ice Watch 23.2F - - 95 - - - 2 mhos 457 None None - -
01/24/2015 22:26 Ice Watch 23.4F - - 95 - - - 2 mhos 443 None None - -
01/24/2015 22:20 Ice Watch 23.4F - - 95 - - - 2 mhos 437 None None - -
01/24/2015 22:10 Ice Watch 23.2F - - 95 - - - 2 mhos 415 None None - -
01/24/2015 22:00 Ice Watch 23.5F - - 95 - - - 2 mhos 382 None None - -
01/24/2015 21:55 Ice Watch 23.7F - - 95 - - - 2 mhos 356 None None - -
01/24/2015 21:50 Ice Watch 23.5F - - 95 - - - 2 mhos 348 None None - -
01/24/2015 21:40 Ice Watch 23.7F - - 95 - - - 2 mhos 317 None None - -
01/24/2015 21:40 Ice Watch 23.7F - - 95 - - - 2 mhos 313 None None - -
01/24/2015 21:30 Ice Watch 23.5F - - 95 - - - 1 mhos 291 None None - -
01/24/2015 21:26 Ice Watch 23.5F - - 95 - - - 1 mhos 276 None None - -
Change End Date:
Copyright © 1998-2005 Surface Systems, Inc.
All Rights Reserved
Send comments about the data to:
SCAN Web ® is a registered trademark of Surface Systems, Inc.
SCAN Web Version 5.6